GW1852 Weather Reports


Display with metric or nautical units.
time (UTC)temp
F
wind
direction
speed
MPH
gust
MPH
rain 1hr
in
rain 24hr
in
rain mn
in
humidity
%
barometer
mb
20260510050024 56 153 0.0 0.0 0.00 0.00 0.00 63 1018.3
20260510044519 56 122 0.0 0.0 0.00 0.00 0.00 60 1018.3
20260510043022 57 120 0.0 0.0 0.00 0.00 0.00 57 1018.3
20260510041516 57 101 0.0 0.0 0.00 0.00 0.00 61 1018.1
20260510040015 59 215 0.0 0.0 0.00 0.00 0.00 60 1018.1
20260510034516 59 160 0.0 0.0 0.00 0.00 0.00 52 1017.9
20260510033015 59 120 0.0 0.0 0.00 0.00 0.00 52 1017.8
20260510031532 60 153 0.0 0.0 0.00 0.00 0.00 55 1017.6
20260510030020 61 154 0.0 0.0 0.00 0.00 0.00 54 1017.4
20260510024521 62 160 0.0 1.0 0.00 0.00 0.00 51 1017.3
20260510023013 62 131 1.0 2.0 0.00 0.00 0.00 50 1017.2
20260510021512 63 158 0.0 1.0 0.00 0.00 0.00 46 1017.1
20260510020014 63 158 0.0 2.0 0.00 0.00 0.00 47 1017.1
20260510014512 63 115 0.0 1.0 0.00 0.00 0.00 49 1017.1
20260510013010 64 185 0.0 2.0 0.00 0.00 0.00 41 1017.1
20260510011510 65 185 1.0 2.0 0.00 0.00 0.00 42 1017.1
20260510010009 66 185 0.0 1.0 0.00 0.00 0.00 39 1017.2
20260510004510 65 181 1.0 5.0 0.00 0.00 0.00 40 1017.2
20260510003021 65 226 1.0 3.0 0.00 0.00 0.00 45 1017.2
20260510001508 65 224 2.0 5.0 0.00 0.00 0.00 42 1017.2
20260510000006 66 163 0.0 2.0 0.00 0.00 0.00 39 1017.2
20260509234513 66 150 0.0 1.0 0.00 0.00 0.00 39 1017.2
20260509233005 65 160 0.0 3.0 0.00 0.00 0.00 40 1017.2
20260509231507 65 195 0.0 1.0 0.00 0.00 0.00 41 1017.3
20260509230011 65 128 0.0 1.0 0.00 0.00 0.00 42 1017.4
20260509224503 64 134 0.0 2.0 0.00 0.00 0.00 44 1017.4
20260509223003 66 185 1.0 3.0 0.00 0.00 0.00 39 1017.5
20260509221502 65 104 1.0 3.0 0.00 0.00 0.00 47 1017.6
20260509214558 65 226 1.0 4.0 0.00 0.00 0.00 39 1017.7
20260509213100 65 229 3.0 6.0 0.00 0.00 0.00 43 1017.8
20260509211603 66 195 2.0 3.0 0.00 0.00 0.00 40 1017.8
20260509210056 65 341 1.0 5.0 0.00 0.00 0.00 39 1017.9
20260509204554 66 1 0.0 3.0 0.00 0.00 0.00 38 1018.0
20260509203051 66 157 0.0 3.0 0.00 0.00 0.00 37 1018.0
20260509201552 66 214 2.0 4.0 0.00 0.00 0.00 38 1017.9
20260509200054 65 196 1.0 5.0 0.00 0.00 0.00 39 1017.9
20260509194546 63 224 0.0 1.0 0.00 0.00 0.00 40 1018.1
20260509193046 62 229 0.0 1.0 0.00 0.00 0.00 43 1018.2
20260509191546 61 217 0.0 1.0 0.00 0.00 0.00 41 1018.2
20260509190044 62 230 0.0 0.0 0.00 0.00 0.00 40 1018.3
20260509184543 62 244 0.0 0.0 0.00 0.00 0.00 40 1018.2
20260509183059 61 282 0.0 0.0 0.00 0.00 0.00 40 1018.2
20260509181554 61 309 0.0 0.0 0.00 0.00 0.00 39 1018.1
20260509180038 61 278 0.0 0.0 0.00 0.00 0.00 40 1018.0
20260509174537 61 307 0.0 4.0 0.00 0.00 0.00 42 1017.9
20260509173034 62 207 1.0 2.0 0.00 0.00 0.00 48 1017.8
20260509171532 62 214 0.0 3.0 0.00 0.00 0.00 45 1017.6
20260509170030 63 193 0.0 1.0 0.00 0.00 0.00 48 1017.6
20260509164525 62 203 0.0 0.0 0.00 0.00 0.00 52 1017.6
20260509163030 61 171 0.0 0.0 0.00 0.00 0.00 52 1017.6
20260509161523 61 212 0.0 0.0 0.00 0.00 0.00 54 1017.5
20260509160023 60 174 0.0 0.0 0.00 0.00 0.00 56 1017.4
20260509154517 59 125 0.0 0.0 0.00 0.00 0.00 58 1017.3
20260509153013 58 309 0.0 0.0 0.00 0.00 0.00 57 1017.2
20260509151511 57 287 0.0 0.0 0.00 0.00 0.00 58 1017.2
20260509150014 56 290 0.0 0.0 0.00 0.00 0.00 60 1017.0
20260509144517 56 290 0.0 0.0 0.00 0.00 0.00 59 1016.9
20260509143006 55 275 0.0 0.0 0.00 0.00 0.00 61 1016.9
20260509141506 55 278 0.0 0.0 0.00 0.00 0.00 64 1016.8
20260509140006 55 321 0.0 0.0 0.00 0.00 0.00 65 1016.7
20260509134502 54 48 0.0 0.0 0.00 0.00 0.00 66 1016.7
20260509133109 54 297 0.0 0.0 0.00 0.00 0.00 66 1016.4
20260509131557 53 326 0.0 0.0 0.00 0.00 0.00 64 1016.2
20260509130056 53 334 0.0 0.0 0.00 0.00 0.00 68 1016.0
20260509124554 53 333 0.0 0.0 0.00 0.00 0.00 67 1015.8
20260509123054 53 341 0.0 0.0 0.00 0.00 0.00 66 1015.6
20260509121552 52 330 0.0 0.0 0.00 0.00 0.00 68 1015.6
20260509120053 53 297 0.0 0.0 0.00 0.00 0.00 70 1015.4
20260509114547 53 353 0.0 0.0 0.00 0.00 0.00 66 1015.3
20260509113045 54 335 0.0 0.0 0.00 0.00 0.00 64 1015.2
20260509111543 53 355 0.0 0.0 0.00 0.00 0.00 66 1014.9
20260509110040 52 360 0.0 0.0 0.00 0.00 0.00 71 1014.8
20260509104541 53 354 0.0 0.0 0.00 0.00 0.00 71 1014.7
20260509103034 53 344 0.0 0.0 0.00 0.00 0.00 70 1014.5
20260509101541 53 339 0.0 0.0 0.00 0.00 0.00 69 1014.4
20260509100030 54 348 0.0 0.0 0.00 0.00 0.00 68 1014.3
20260509094527 53 349 0.0 0.0 0.00 0.00 0.00 69 1014.2
20260509093036 54 355 0.0 0.0 0.00 0.00 0.00 66 1014.0
20260509091523 53 338 0.0 3.0 0.00 0.00 0.00 66 1013.8
20260509090018 54 343 0.0 0.0 0.00 0.00 0.00 65 1013.7
20260509084524 54 351 0.0 0.0 0.00 0.00 0.00 65 1013.5
20260509083013 54 338 0.0 0.0 0.00 0.00 0.00 65 1013.4
20260509081513 55 340 0.0 0.0 0.00 0.00 0.00 61 1013.3
20260509080026 55 327 0.0 0.0 0.00 0.00 0.00 61 1013.3
20260509074509 55 330 0.0 0.0 0.00 0.00 0.00 61 1013.3
20260509073006 55 328 0.0 0.0 0.00 0.00 0.00 63 1013.3
20260509071504 55 15 0.0 0.0 0.00 0.00 0.00 62 1013.2
20260509070002 56 344 0.0 0.0 0.00 0.00 0.00 61 1013.2
20260509064616 56 328 0.0 0.0 0.00 0.00 0.00 59 1013.1
20260509063058 56 349 0.0 0.0 0.00 0.00 0.00 59 1012.9
20260509061554 57 345 0.0 0.0 0.00 0.00 0.00 59 1012.9
20260509060050 57 339 0.0 0.0 0.00 0.00 0.00 58 1012.8
20260509054552 58 338 0.0 9.0 0.00 0.00 0.00 55 1012.5
20260509053049 59 339 0.0 0.0 0.00 0.00 0.00 53 1012.2
20260509051557 60 334 0.0 0.0 0.00 0.00 0.00 51 1011.9